sat.trackr.live / text

‹ back to catalog

COMSATBW-2

NORAD 36582 · 2010-021B

PAYLOAD ACTIVE UNKNOWN

§ Identity

Operator
Country
GER
Launch date
2010-05-21
Launch site
FRGUI
Launch vehicle
Mass (kg)
RCS (m²)
6.31

Purposes: comms

External: N2YO · Heavens-Above · Gunter

§ Orbital elements

Epoch: 2026-09-20T03:17:57.739776Z

Period
1,436.14 min
Inclination
0.0093°
Eccentricity
0.0002600
Mean motion
1.00268969 rev/d
Perigee alt
35,776.4 km
Apogee alt
35,798.3 km
Semi-major
42,165.5 km
B*
0.0000e+0
RAAN
162.6530°
Arg perigee
26.6645°
Mean anomaly
232.4791°
Rev number
5,990

§ Raw data

COMSATBW-21 36582U 10021B   26263.13747384  .00000084  00000+0  00000+0 0  99942 36582   0.0093 162.6530 0002600  26.6645 232.4791  1.00268969 59900

JSON: /api/v1/satellites/36582 · /tle

For live sub-satellite position, see the globe view (requires WebGL).

§ Visibility from observer

Set your observer location to see the next 7 days of passes ≥ 10°. The values pass through the URL so the page stays shareable.

No JS? Fill the form by hand. The geolocation button needs JavaScript.